カタログに戻る

ETS 8

運用中科学GEO
NORAD 29656·PAYLOAD·🇯🇵 Japan

打ち上げ Dec 18, 2006 から Tanegashima Space Center

Loading…

TLE

最新Source: Space-Track

元期: Sep 14, 2026, 04:18 UTC

1 29656U 06059A   26257.17983054 -.00000261  00000-0  00000-0 0  9997
2 29656  11.7251  38.5011 0005522 174.9817   8.1188  0.99009756 71915

AllMySatでETS 8をリアルタイム追跡

Download on the App Store